User: anonymous   Login
Location: Unspecified
(0.0000°N, 0.0000°E)
Time: 16:29:09
(UTC+00:00)
Language:

MetOp-A - Orbit

View from above orbital plane
View from above orbital plane
View from above satellite
View from above satellite

Ground track
Ground track

The orbit data is extracted from the following two-line orbital elements,

1 29499U 06044A   17204.95034722 +.00000008 +00000-0 +23383-4 0  9994
2 29499 098.6755 263.9494 0002187 086.7988 258.6341 14.21502880558172
Epoch (UTC): 23 July 2017 22:48:30
Eccentricity: 0.0002187
inclination: 98.6755°
perigee height: 819 km
apogee height: 822 km
right ascension of ascending node: 263.9494°
argument of perigee: 86.7988°
revolutions per day: 14.21502880
mean anomaly at epoch: 258.6341°
orbit number at epoch: 55817

The dashed part of the orbit path shows where the satellite is in the earth's shadow,  

DLR